Погода в Красноуфимске

Погода в Красноуфимске : погода сейчас, прогноз погоды и архив. Всё, что Вы хотите узнать о погоде в Красноуфимске!

Хотите узнать прогноз погоды в Красноуфимске? Тогда Вам сюда: Погода в Красноуфимске

Поиск расширенной информации на нашем сайте:

Другие новости

Новости СМИ2

Главная страница сайта

Новости сайта

03.07.2017

Напоминаем, что на нашем специализированном сайте Метеоцентр.Азия вы можете получить высокодетализированные автоматические прогнозы погоды по пунктам России, СНГ и мира в авиационном формате (включающие направление и скорость ветра, видимость, явления погоды, количество и форму облачности, нижнюю и верхнюю границу облачности).

Рекомендуем: Работы по хозяйству; гарантия качества.

Погода в Красноуфимске - сегодня

Время (UTC), дата Ветер
(°,м/с) 
Видим.   Явления Облачность Т
(°С)
Тd
(°С)
f(%) Тe
(°С)
Pmin
(гПа)
dP
(гПа)
Po
(мм)
O2
(г/м3)
Тmin Tmax R s Состояние
почвы
21 15.10.18 160 (Ю) 20000 м    10/10 600 м кучево-дожд. 
[Cb cap]
-0.6 -1.6 93 1022.6  -0.6  747  302           
00 16.10.18 170 (Ю) 4000 м  слаб. ливневой снег  10/10 600 м кучево-дожд. 
[Cb cap]
-1.1 -1.3 99 -2  1021.1  -1.5  746  302           
03 16.10.18 170 (Ю) 20000 м  {ливн. осадки}  10/10 600 м кучево-дожд. 
[Cb cap]
-0.8 -1 99 -2  1020.4  -0.6  746  301  -1.6    равномерный
мокрый или
старый снег
100% 
06 16.10.18 170 (Ю) 20000 м  слаб. ливневой снег  10/10 600 м кучево-дожд. 
[Cb cap]
+0.2 +0 99 -1  1019.8  -0.5  745  300           
09 16.10.18 200 (Ю) 20000 м  {ливн. осадки}  10/10 600 м кучево-дожд. 
[Cb cap]
+1.4 +0.5 94 +1  1018.8  -0.8  745  298           
12 16.10.18 220 (ЮЗ) 20000 м  {ливн. осадки}  10/10 600 м кучево-дожд. 
[Cb cap]
+1.9 +1.2 95 +1  1018  -0.8  744  298           
18 16.10.18 250 (З) 4000 м  слаб. морось  10/10 300 м 
[St]
+3.2 +2.8 97 +2  1015.5  -1.8  743  295           
21 16.10.18 250 (З) 20000 м  {морось}  10/10 300 м 
[St]
+4.2 +3.8 97 +3  1013.6  -1.8  741  293           
00 17.10.18 230 (ЮЗ) 20000 м  {морось}  10/10 300 м 
[St]
+5.4 +4.8 96 +6  1010.9  -2.5  739  291           
03 17.10.18 220 (ЮЗ) 20000 м    10/10 300 м 
[St]
+7.3 +6.6 95 +7  1007.2  -3.4  737  288  +2.2    0.0    влажная 
06 17.10.18 260 (З) 20000 м    10/10 300 м 
[St]
+7.7 +6.1 90 +6  1005.5  -3.4  736  287           
09 17.10.18 280 (З) 20000 м  в посл. час морось  10/10 300 м 
[St]
+8.2 +6.9 92 +8  1004.9  -0.5  735  286           
21 17.10.18 320 (СЗ) 4{11}  20000 м    10/10 600 м кучево-дожд. 
[Cb cap]
+4 +0.5 78 +2  1015.6  0.7  743  295           
00 18.10.18 300 (СЗ) 5{12}  20000 м    10/10 600 м кучево-дожд. 
[Cb cap]
+4.1 +0.3 76 +2  1016.5  0.9  743  295           
03 18.10.18 320 (СЗ) 5{10}  20000 м  {ливн. осадки}  10/10 600 м кучево-дожд. 
[Cb cap]
+2.8 -0.4 79 1017.5  0.8  744  297  +2.8    0.0    влажная 
09 18.10.18 320 (СЗ) 20000 м    9/9 600 м кучево-дожд. 
[Cb cap]
+4.9 -0.2 70 +3  1018.3  0.4  745  295           
12 18.10.18 330 (СЗ) 20000 м    9/9 600 м кучево-дожд. 
[Cb cap]
+4.3 +0.7 77 +4  1018.4  745  295           
18 18.10.18 180 (Ю) 20000 м    9/0 верхняя 
[Ci fib]
-1.7 -1.9 99 -1  1017.4  -1.5  744  302           
21 18.10.18 250 (З) 20000 м    10/10 600 м 
[Sc]
+2.9 +0.8 86 +2  1015  -1.9  742  296           
00 19.10.18 240 (ЮЗ) 20000 м    10/10 600 м 
[Sc]
+4.2 +2 86 +4  1012.7  -2.2  740  294           
03 19.10.18 240 (ЮЗ) 10 км  слаб. дождь  10/10 600 м 
[Sc]
+5.2 +3.8 91 +5  1011.3  -1.2  740  292  -2.1    0.1    влажная 
06 19.10.18 270 (З) 20000 м  {дождь}  10/10 600 м кучево-дожд. 
[Cb cap]
+6.6 +4.9 89 +6  1010.8  -0.3  739  290           
09 19.10.18 260 (З) 20000 м    10/10 600 м кучево-дожд. 
[Cb cap]
+8.2 +5.8 85 +8  1010.6  0.1  739  288           
12 19.10.18 230 (ЮЗ) 20000 м    10/10 600 м кучево-дожд. 
[Cb cap]
+8.1 +6.1 87 +7  1010.8  0.2  739  288           
18 19.10.18 240 (ЮЗ) 20000 м    10/10 600 м кучево-дожд. 
[Cb cap]
+9.3 +7 86 +9  1008.3  -1.5  738  286           
Время (UTC), дата Ветер
(°,м/с) 
Видим.   Явления Облачность Т
(°С)
Тd
(°С)
f(%) Тe
(°С)
Pmin
(гПа)
dP
(гПа)
Po
(мм)
O2
(г/м3)
Тmin Tmax R s Состояние
почвы

Для получения пояснительной информации подведите курсор к названию столбца.

ПОГОДА в Красноуфимске - архив

Всё, что Вы хотите узнать о погоде в Красноуфимске - удобно и подробно!

Выберите нужную дату (начиная с 1 января 2015* года) и нажмите кнопку "Найти".
Будут отображены архивные сводки погоды по пункту Красноуфимск, начиная с указанной даты.


Отображать данные в формате CSV (для использования в таблицах Excel)


Внимание! Наш архив погоды предназначен исключительно для личного некоммерческого использования в познавательных целях. Если Вам необходимы официальные справки о состоянии погоды (для производственных, юридических, коммерческих и т.п. целей), обращайтесь в органы Росгидромета.

*Примечание: данная дата относится к архиву по метеостанциям СССР (Россия, СНГ, Балтия).
Архив по метеостанциям Зарубежной Европы и Азии (кроме Китая) хранится 10 дней, по другим регионам земного шара (Китай, Африка, Америка, Австралия, Океания) - 1 день.

Красноуфимск - район местоположения метеостанции


Название, широта, долгота, высота метеостанции:
Красноуфимск 56.6°ш. 57.8°д. 206 м над ур. моря [Российская Федерация]

Дополнительная информация

В oтличие oт бoльшинства пoгoдных сайтoв мы публикуем пoдрoбную метеoинфoрмацию в детальнoм прoфессиoнальнoм фoрмате.

Характеристики температуры и влажнoсти вoздуха измеряются на высoте 2 м в тени вдали oт зданий и деревьев.
Скoрoсть ветра измеряется на высoте 10 м (на урoвне рoста челoвека скoрoсть ветра ниже в 1.5-2 раза). Если метеoстанция нахoдится в гoрoде или в лесу, тo скoрoсть ветра занижена на 2-4 м/с пo сравнению с oткрытым местoм. Скoрoсть ветра над акватoриями крупных рек и oзёр, а также на вершинах хoлмoв на 2-5 м/с выше, чем в oбычных услoвиях.
Атмoсфернoе давление в разных тoчках местнoсти мoжет значительнo oтличаться oт давления на метеoстанции, в зависимoсти oт услoвий рельефа (при пoдъёме на 10 м давление пoнижается примернo на 1 мм рт.ст.).